Location: Bas-Clignon
(44.2000°N, 6.6333°E)
Time: 07:28:12
(UTC+00:00)

Genesis I - Pass Details

Date: 03 February 2023
Orbit: 466 x 515 km, 64.5° (Epoch: 26 March)

Event Time Altitude Azimuth Distance (km) Brightness Sun altitude
Rises 18:51:03 0° 228° (SW) 2,639 7.6 -22.7°
Reaches altitude 10° 18:53:17 10° 235° (SW) 1,758 6.6 -23.1°
Maximum altitude 18:57:06 47° 309° (NW) 703 4.1 -23.8°
Enters shadow 18:57:47 42° 342° (NNW) 759 4.1 -23.9°
